Regional Weather Roundup
Issued by NWS Binghamton, NY

Home | Current Version | Previous Version | Text Only | Print | Product List | Glossary On
Versions: 1 2 3 4 5 6 7 8 9 10 11 12 13 14 15 16 17 18 19 20 21 22 23 24 25 26 27 28 29 30 31 32 33 34 35 36 37 38 39 40 41 42 43 44 45 46 47 48 49 50
000
ASUS41 KBGM 180310
RWRBGM
RWRBGM
BINGHAMTON REGIONAL WEATHER ROUNDUP
NATIONAL WEATHER SERVICE BINGHAMTON NY
1100 PM EDT FRI APR 17 2015

Note: "fair" indicates few or no clouds below 12,000 feet with no
significant weather and/or obstructions to visibility.

* = Station(s) that does not report precipitation, such as rain,
snow, etc, also no thunder or fog.

!NYZ009-015>018-022>025-036-037-044>046-055>057-062-180400
...CENTRAL NEW YORK...

CITY           SKY/WX    TMP DP  RH WIND       PRES   REMARKS
BINGHAMTON     CLEAR     53  45  74 NW3       30.00S
CORTLAND       FAIR      43  43 100 CALM      30.02S FOG
DANSVILLE      CLEAR     52  44  74 VRB5      30.02S
ELMIRA         CLEAR     45  42  89 CALM      30.01S
ITHACA         NOT AVBL
MONTICELLO     CLEAR     52  45  76 NW8       30.01S
PENN YAN       CLEAR     50  42  74 SW3       30.00S
ROME           CLEAR     43  41  93 CALM      29.99S
SYRACUSE       CLEAR     50  46  86 SW5       29.98S
$$

!PAZ038>040-043-044-047-048-072-180400
...NORTHEAST PENNSYLVANIA...

CITY           SKY/WX    TMP DP  RH WIND       PRES   REMARKS
HAZLETON       PTCLDY    59  50  72 CALM      30.04R
SCRANTON       CLEAR     57  49  74 E5        30.00R
TOWANDA*       CLEAR     52  46  82 MISG      30.01F
$$
&&
KEY
WCI = WIND CHILL INDEX
VSB = VISIBILITY
HX  = HEAT INDEX
$$


USA.gov is the U.S. government's official web portal to all federal, state and local government web resources and services.